カタログに戻る

FFLY-2

運用中科学SSO
NORAD 65322·PAYLOAD·🇺🇸 United States

打ち上げ Aug 26, 2025 から Vandenberg Space Force Base

Loading…

次のパス (今後24時間)

TLE

最新Source: Space-Track

元期: Sep 14, 2026, 12:06 UTC

1 65322U 25188H   26257.50445902  .00000895  00000-0  91829-4 0  9998
2 65322  97.7298 331.1940 0012503 181.3428 178.7760 14.92841723 57235

AllMySatでFFLY-2をリアルタイム追跡

Download on the App Store